Temp
18 18 18 17 17 18 20 19 21 19 19 17 17 16 14 12 12 13 11 11 12 13 12 13 14 14 14 14 14 15 15 14 14 14 15 15 14 14 14 13 13 12 12 12 12 12 14 13 12
18 16 17 19 18 19 18 20 18 18 17 17 17 15 14 11 9 10 11 11 11 12 12 13 13 13 14 14 14 14 14 14 14 14 14 15 14 13 13 13 13 12 12 12 13 14 14 13 12
18 17 18 19 19 17 18 18 17 18 17 16 14 12 11 9 9 9 10 11 11 11 12 12 13 13 13 13 14 14 14 14 14 14 14 14 14 14 13 13 13 12 12 12 14 13 14 13 11
17 18 19 18 19 17 17 17 18 19 18 16 14 12 10 9 9 8 8 10 11 11 11 12 13 13 13 13 13 13 14 14 14 14 14 14 14 14 13 13 13 13 12 12 13 14 14 12 12
18 19 18 20 18 18 17 17 17 18 17 15 16 12 10 9 9 8 8 8 11 10 11 11 12 12 13 13 13 11 12 13 13 14 14 14 13 13 13 13 13 13 12 13 13 13 13 12 11
18 20 18 19 18 17 17 16 16 17 17 13 13 14 10 9 10 10 8 8 9 10 10 10 11 11 12 12 12 11 11 12 12 13 13 14 13 13 13 13 13 13 13 13 13 13 12 12 12
18 18 18 19 18 17 16 15 15 15 15 13 12 13 11 9 9 9 7 7 7 10 8 9 10 11 11 11 11 11 11 12 12 12 12 13 13 13 13 13 13 13 12 13 13 13 12 12 12
17 18 19 17 17 16 15 15 13 13 13 12 11 11 11 8 9 8 8 7 7 8 9 8 8 9 10 11 11 11 11 11 12 12 12 12 12 12 13 12 13 12 12 12 13 12 12 11 12
17 17 17 16 16 15 15 14 13 12 13 12 10 10 9 8 8 8 8 7 7 8 8 9 9 9 9 10 10 11 11 11 11 12 11 12 12 12 12 12 12 12 12 11 12 12 11 12 11
16 16 15 14 14 14 15 14 13 13 14 13 12 11 9 8 7 7 7 7 7 8 8 8 8 8 7 9 10 10 10 11 11 12 12 11 12 12 12 12 12 11 12 11 11 11 11 11 11
15 14 14 14 12 13 14 14 12 13 13 11 10 9 8 7 7 7 6 6 7 7 7 8 8 8 8 7 9 9 9 10 10 11 12 11 11 11 11 12 12 12 12 12 11 12 11 11 10
13 14 14 12 11 12 13 12 13 12 12 9 9 8 7 7 7 6 6 6 7 7 7 7 7 8 8 8 7 7 8 9 10 10 11 12 10 11 12 12 12 11 11 11 11 11 11 9 10
13 13 12 11 11 11 11 12 12 11 11 9 8 8 8 7 6 6 5 7 7 7 7 7 7 7 8 8 8 8 9 9 9 9 10 11 10 10 11 12 11 12 11 11 11 11 10 9 9
13 13 12 12 12 12 11 12 11 12 10 9 9 9 8 7 7 7 6 7 7 7 7 7 7 7 7 8 8 8 9 8 9 9 9 9 10 10 10 11 11 11 11 11 11 11 10 9 9
13 13 12 13 12 12 10 10 11 12 10 10 10 10 9 8 7 6 6 6 6 6 7 7 7 7 7 7 7 7 8 8 9 9 10 9 9 11 10 11 11 11 11 10 11 11 10 10 10
13 13 13 12 12 11 11 13 13 12 11 11 11 11 10 9 8 7 6 6 6 6 6 6 6 6 7 7 7 7 7 8 8 9 10 10 10 11 10 11 11 11 11 11 10 10 10 10 10
13 13 13 12 11 11 12 10 13 12 11 11 11 12 11 10 9 7 6 5 6 5 5 5 6 6 6 7 7 7 6 7 7 8 9 10 10 10 10 10 12 11 11 11 10 10 10 10 10
13 13 13 13 11 10 9 10 13 14 12 11 11 12 11 10 9 8 6 5 5 5 4 4 4 5 6 6 6 6 6 7 7 8 9 10 10 10 10 10 12 11 10 10 10 10 10 10 10
12 12 12 13 11 9 11 11 12 13 12 12 12 12 11 11 10 8 6 5 4 4 3 4 4 4 4 5 7 6 7 7 7 7 8 10 9 10 9 10 12 10 10 10 11 10 10 10 9
11 12 10 11 11 10 9 9 11 13 13 12 11 11 10 10 9 8 7 5 4 4 3 4 3 3 3 4 5 6 6 6 8 8 8 9 10 9 9 10 10 10 10 10 10 10 10 10 9
10 10 9 8 9 10 9 9 12 12 12 11 11 10 10 9 8 8 6 5 4 4 4 4 3 2 3 3 4 5 5 6 7 7 8 8 9 8 9 9 9 10 10 10 9 10 10 10 10
10 8 8 8 7 9 11 7 12 11 11 10 12 11 10 9 8 7 6 5 5 4 4 3 3 3 2 3 3 5 5 6 6 7 7 8 8 8 9 10 9 10 10 10 10 10 10 10 10
8 7 7 8 7 8 10 7 13 12 12 11 12 11 10 9 7 7 6 5 4 4 4 3 3 3 2 2 3 3 4 6 6 6 6 7 8 9 9 9 9 9 9 10 10 10 10 9 9
7 7 7 8 7 4 10 8 12 12 14 12 12 11 10 9 8 7 6 5 3 3 3 3 3 2 2 2 2 2 4 4 7 5 5 6 7 8 9 10 9 9 10 9 10 10 10 9 10
7 7 5 6 5 6 8 6 9 14 12 13 12 11 10 9 8 7 6 5 4 3 3 3 2 2 2 2 2 2 3 3 5 6 6 5 6 7 9 9 9 9 9 9 10 9 9 9 10
7 7 5 8 7 6 7 8 12 11 12 11 11 10 9 9 8 7 5 4 4 4 2 3 2 2 2 2 1 2 2 3 5 6 6 5 5 7 8 9 9 8 9 9 9 9 9 9 10
7 6 6 4 -1 3 9 11 14 12 12 11 11 10 10 9 8 7 5 4 4 4 3 2 2 2 2 2 1 2 2 3 3 4 5 5 5 6 7 8 7 8 9 9 9 9 9 9 9
5 6 6 3 6 6 8 10 9 11 11 11 10 10 10 9 8 6 5 4 4 4 3 2 3 2 2 2 2 2 2 2 3 3 4 4 5 5 7 8 8 8 8 8 9 9 9 9 9
4 4 6 6 5 5 5 8 11 14 14 12 11 10 9 8 7 6 5 4 4 4 4 2 3 2 3 3 2 2 2 2 3 3 3 4 5 6 7 7 8 7 8 8 9 9 9 8 8
4 7 7 5 5 3 4 5 9 8 9 10 11 10 8 8 8 7 6 5 4 3 3 3 2 2 3 3 3 2 2 2 1 2 2 3 4 6 7 7 7 7 8 8 8 8 8 8 8
Height
1511 1512 1513 1515 1522 1514 1512 1518 1514 1517 1521 1525 1524 1526 1530 1536 1538 1542 1539 1537 1534 1531 1528 1527 1527 1528 1529 1531 1532 1532 1533 1534 1535 1537 1538 1539 1541 1542 1542 1544 1544 1545 1545 1546 1546 1545 1546 1546 1548
1511 1513 1515 1513 1521 1520 1521 1515 1521 1524 1527 1526 1525 1530 1532 1538 1540 1539 1538 1536 1534 1531 1529 1526 1526 1526 1527 1529 1530 1531 1532 1533 1534 1536 1537 1539 1540 1542 1543 1545 1545 1546 1546 1547 1546 1546 1547 1547 1549
1513 1514 1515 1510 1511 1528 1525 1521 1525 1525 1527 1528 1530 1531 1535 1540 1540 1538 1538 1534 1533 1531 1528 1526 1525 1525 1526 1520 1528 1528 1530 1532 1533 1535 1537 1538 1539 1541 1543 1545 1546 1547 1547 1547 1547 1548 1548 1549 1551
1515 1516 1515 1516 1519 1522 1523 1525 1527 1525 1526 1529 1530 1535 1538 1539 1540 1539 1537 1533 1531 1530 1528 1526 1524 1523 1524 1524 1525 1528 1527 1528 1532 1534 1535 1537 1538 1541 1543 1545 1547 1547 1548 1548 1548 1549 1549 1550 1552
1516 1513 1513 1512 1520 1523 1526 1530 1530 1528 1529 1530 1531 1535 1538 1540 1540 1538 1535 1533 1530 1528 1527 1525 1524 1523 1523 1524 1518 1519 1529 1527 1530 1532 1535 1537 1538 1539 1541 1544 1546 1547 1548 1549 1549 1550 1550 1552 1554
1517 1513 1515 1516 1520 1524 1528 1532 1531 1529 1530 1534 1534 1535 1538 1540 1537 1535 1535 1533 1528 1526 1525 1525 1524 1523 1521 1521 1521 1521 1521 1524 1530 1531 1534 1536 1537 1539 1540 1542 1545 1546 1547 1548 1550 1550 1552 1553 1554
1516 1513 1518 1515 1520 1525 1529 1534 1534 1535 1533 1536 1538 1536 1538 1538 1536 1535 1534 1533 1528 1525 1525 1524 1522 1524 1521 1519 1519 1521 1519 1524 1529 1530 1532 1535 1536 1538 1540 1542 1544 1545 1546 1548 1550 1550 1552 1553 1555
1516 1514 1516 1521 1523 1528 1534 1535 1536 1537 1537 1538 1537 1538 1537 1537 1535 1534 1532 1531 1527 1525 1523 1522 1522 1522 1519 1519 1519 1521 1519 1523 1526 1528 1529 1533 1535 1537 1538 1541 1542 1544 1545 1548 1550 1550 1552 1554 1555
1517 1517 1521 1526 1526 1532 1534 1536 1536 1537 1537 1537 1538 1538 1539 1537 1534 1532 1531 1529 1526 1524 1522 1520 1518 1518 1520 1519 1517 1519 1520 1521 1522 1527 1529 1531 1533 1535 1536 1538 1540 1543 1545 1548 1550 1550 1552 1554 1555
1518 1519 1529 1534 1534 1534 1534 1536 1537 1536 1533 1534 1536 1537 1536 1534 1533 1531 1528 1525 1524 1522 1521 1519 1518 1517 1516 1516 1515 1518 1519 1520 1521 1524 1526 1529 1531 1533 1535 1536 1538 1541 1543 1544 1547 1551 1552 1554 1555
1522 1528 1533 1536 1537 1536 1535 1535 1536 1535 1533 1535 1537 1536 1534 1532 1532 1529 1526 1524 1522 1520 1519 1517 1516 1515 1515 1514 1514 1516 1515 1517 1519 1520 1523 1525 1528 1531 1532 1533 1536 1538 1541 1542 1545 1549 1551 1554 1555
1530 1533 1534 1538 1538 1537 1536 1536 1535 1535 1535 1535 1535 1533 1532 1531 1530 1528 1525 1522 1520 1518 1516 1514 1514 1513 1513 1514 1514 1512 1513 1514 1515 1515 1518 1521 1523 1529 1529 1530 1533 1536 1539 1541 1543 1547 1549 1554 1555
1531 1535 1536 1539 1539 1538 1537 1535 1535 1533 1532 1532 1533 1532 1531 1529 1527 1525 1523 1520 1518 1516 1515 1512 1511 1509 1509 1510 1510 1510 1510 1510 1511 1511 1514 1515 1522 1523 1527 1528 1530 1533 1537 1541 1544 1545 1548 1554 1556
1534 1534 1536 1539 1538 1536 1536 1534 1533 1529 1530 1531 1531 1530 1529 1526 1524 1523 1521 1519 1517 1515 1512 1510 1509 1507 1505 1505 1506 1506 1506 1506 1506 1508 1510 1514 1515 1519 1524 1526 1528 1531 1535 1540 1543 1545 1549 1553 1555
1534 1534 1535 1536 1536 1535 1535 1532 1528 1527 1528 1529 1529 1527 1526 1523 1521 1520 1519 1518 1516 1513 1510 1507 1505 1503 1503 1502 1502 1501 1502 1501 1502 1501 1503 1506 1511 1512 1518 1523 1525 1528 1534 1539 1542 1545 1549 1551 1554
1532 1533 1534 1535 1535 1534 1535 1526 1523 1525 1526 1526 1525 1524 1523 1522 1521 1520 1518 1516 1514 1512 1509 1506 1504 1501 1499 1498 1497 1498 1498 1497 1496 1496 1497 1498 1503 1507 1513 1517 1521 1526 1531 1536 1540 1543 1546 1551 1553
1531 1536 1534 1535 1536 1535 1534 1530 1521 1521 1523 1523 1522 1522 1521 1520 1519 1517 1515 1514 1511 1509 1506 1503 1501 1498 1496 1494 1494 1493 1493 1493 1493 1492 1489 1491 1497 1503 1510 1512 1517 1525 1529 1533 1537 1541 1545 1548 1551
1534 1535 1534 1536 1535 1535 1535 1527 1518 1517 1518 1519 1519 1519 1518 1517 1517 1515 1514 1512 1510 1507 1505 1501 1499 1496 1493 1491 1490 1490 1490 1490 1489 1488 1485 1487 1494 1500 1506 1510 1515 1522 1527 1530 1534 1539 1544 1547 1551
1537 1535 1538 1531 1534 1537 1528 1523 1517 1514 1516 1516 1515 1515 1516 1515 1513 1512 1510 1509 1508 1505 1502 1499 1496 1493 1491 1489 1487 1487 1487 1487 1486 1487 1486 1484 1490 1496 1501 1507 1513 1519 1524 1528 1533 1537 1541 1544 1549
1541 1536 1541 1536 1535 1538 1529 1523 1516 1512 1513 1514 1514 1515 1514 1513 1512 1511 1509 1507 1505 1503 1500 1496 1494 1491 1489 1487 1484 1483 1483 1484 1483 1484 1485 1480 1481 1491 1499 1506 1511 1516 1523 1527 1531 1534 1538 1542 1546
1543 1544 1546 1549 1539 1530 1533 1521 1510 1509 1511 1512 1512 1513 1512 1511 1510 1510 1509 1507 1504 1501 1498 1495 1492 1490 1488 1486 1484 1482 1482 1482 1484 1484 1484 1483 1484 1492 1498 1504 1510 1515 1521 1525 1528 1531 1535 1539 1542
1545 1551 1548 1545 1548 1545 1532 1547 1509 1508 1508 1508 1508 1510 1510 1508 1507 1507 1507 1506 1504 1500 1497 1494 1491 1489 1486 1484 1482 1481 1482 1482 1484 1486 1484 1484 1488 1492 1497 1504 1509 1514 1519 1523 1526 1529 1533 1536 1540
1550 1552 1552 1547 1548 1547 1534 1548 1504 1505 1505 1506 1506 1507 1507 1506 1506 1506 1505 1503 1502 1500 1497 1494 1491 1488 1486 1484 1482 1481 1481 1481 1482 1485 1486 1486 1489 1492 1496 1501 1508 1512 1515 1520 1524 1528 1531 1535 1538
1551 1550 1551 1547 1549 1569 1538 1547 1513 1505 1501 1503 1504 1505 1505 1505 1505 1504 1503 1503 1501 1499 1496 1493 1491 1488 1486 1484 1483 1482 1481 1479 1481 1486 1488 1488 1489 1492 1497 1501 1503 1508 1511 1517 1520 1526 1529 1533 1535
1550 1551 1567 1561 1567 1562 1541 1551 1517 1497 1499 1502 1502 1503 1504 1504 1504 1503 1502 1502 1500 1498 1496 1493 1490 1488 1486 1484 1483 1482 1481 1481 1482 1484 1486 1487 1488 1491 1496 1498 1501 1505 1509 1513 1517 1522 1526 1531 1533
1551 1554 1565 1564 1563 1558 1546 1541 1508 1499 1500 1502 1502 1502 1502 1502 1502 1501 1501 1500 1499 1497 1495 1493 1490 1488 1487 1484 1483 1483 1481 1480 1482 1482 1483 1486 1487 1490 1493 1495 1498 1503 1507 1511 1515 1517 1522 1527 1532
1553 1556 1556 1569 1588 1576 1535 1514 1499 1500 1500 1503 1502 1501 1501 1502 1502 1500 1500 1498 1497 1496 1495 1492 1490 1488 1487 1485 1483 1483 1482 1481 1481 1482 1482 1484 1485 1488 1492 1495 1497 1499 1503 1508 1512 1516 1521 1525 1527
1556 1556 1560 1568 1567 1566 1540 1526 1521 1503 1502 1502 1502 1502 1501 1501 1502 1500 1498 1497 1497 1496 1495 1492 1490 1489 1488 1486 1485 1483 1482 1481 1482 1482 1483 1485 1486 1487 1491 1494 1496 1496 1500 1505 1510 1514 1517 1520 1522
1559 1560 1557 1557 1560 1569 1573 1535 1505 1499 1498 1500 1502 1504 1503 1500 1500 1499 1498 1496 1496 1495 1494 1493 1491 1489 1489 1488 1486 1485 1483 1482 1482 1483 1484 1485 1486 1487 1489 1493 1496 1497 1501 1503 1507 1511 1513 1516 1518
1553 1549 1548 1562 1563 1569 1566 1543 1504 1504 1502 1502 1502 1503 1503 1501 1499 1498 1497 1495 1494 1494 1494 1492 1491 1489 1488 1488 1486 1485 1484 1484 1484 1484 1484 1484 1485 1487 1489 1493 1496 1498 1501 1504 1508 1511 1512 1513 1518
Wind_Speed
1 3 8 0 1 3 4 6 4 10 7 13 13 10 10 7 4 2 13 16 17 16 14 8 11 9 11 11 10 11 10 8 8 7 5 5 7 9 9 12 8 12 13 14 11 11 9 9 12
3 5 2 5 2 3 3 6 10 8 8 12 8 6 10 4 5 6 10 17 17 16 14 11 9 9 14 13 12 11 11 10 9 8 7 6 7 9 10 13 10 14 11 12 10 9 9 10 14
9 5 4 2 3 5 3 8 8 5 7 12 4 8 4 3 5 11 17 17 15 13 14 13 7 9 15 12 15 14 12 11 10 10 8 8 8 9 11 13 11 13 11 10 9 9 10 12 15
4 3 5 2 8 8 7 8 6 5 8 13 5 6 4 10 12 16 16 16 13 11 10 10 10 8 14 15 17 15 12 11 11 11 11 10 9 10 11 13 12 12 10 9 9 7 10 11 13
4 5 3 1 6 4 7 7 5 5 6 15 11 5 4 7 8 13 14 17 15 11 10 9 7 5 9 15 11 10 9 8 8 9 10 11 10 11 12 14 12 10 9 8 7 6 9 10 12
6 4 3 1 7 5 6 8 9 9 8 12 8 9 3 4 11 16 15 15 18 13 12 12 9 5 7 8 10 12 10 10 9 8 8 10 12 12 13 14 13 12 9 10 7 6 8 9 10
5 3 5 4 6 5 5 7 13 9 10 11 8 6 8 7 16 16 12 12 17 17 14 14 13 16 6 4 7 12 14 12 10 9 9 9 11 13 14 15 15 15 13 12 9 9 7 8 8
5 2 3 3 5 5 6 7 4 8 5 4 10 5 3 16 16 15 13 12 17 18 18 14 14 14 13 6 10 13 16 14 9 10 11 11 11 11 14 15 16 18 17 12 11 10 9 8 8
4 3 4 4 5 4 7 5 6 3 5 2 1 2 6 14 15 15 13 13 16 16 17 14 15 13 13 12 9 8 13 16 15 14 12 14 13 12 12 15 18 19 18 16 12 11 8 7 9
5 2 6 7 7 5 4 4 5 4 5 4 3 2 8 13 13 15 16 16 17 17 18 17 15 16 14 10 12 13 14 17 17 16 15 15 14 13 14 16 19 20 21 20 14 11 10 9 10
7 4 5 7 5 5 3 3 1 5 4 6 3 7 10 10 11 13 15 17 17 19 18 17 15 14 14 15 11 14 13 19 22 22 19 16 14 13 16 16 21 23 24 27 19 14 13 11 10
5 8 7 2 3 4 4 6 6 1 3 4 4 8 8 9 10 13 14 16 17 18 18 17 16 14 12 13 14 10 12 17 21 22 21 30 19 17 19 19 21 23 25 19 22 18 14 10 8
9 6 5 1 3 3 5 8 3 11 6 7 6 7 8 9 9 10 11 13 15 15 16 17 16 15 11 13 13 13 13 12 18 22 26 31 22 19 21 20 21 24 24 17 19 16 17 13 13
6 7 5 1 4 5 4 10 1 7 6 6 8 8 8 8 9 10 12 13 14 14 16 15 16 14 13 13 14 14 14 13 16 18 22 24 27 23 19 22 24 25 23 23 19 19 19 16 14
5 2 5 6 3 3 6 5 6 4 4 8 10 10 9 8 10 9 13 13 14 14 16 17 16 15 15 12 11 11 12 16 16 19 19 27 26 21 19 24 25 27 25 25 19 22 20 18 14
3 1 2 4 4 3 5 1 6 5 6 11 11 11 9 8 9 10 14 14 14 14 14 15 16 16 15 14 12 11 10 13 15 17 19 29 32 29 28 25 26 26 25 27 23 23 23 19 15
5 2 5 2 2 3 3 7 4 9 7 11 13 11 9 9 9 8 12 14 14 14 16 17 17 17 15 14 12 10 9 11 14 14 21 27 32 32 32 27 24 27 29 28 24 23 22 20 14
2 3 3 6 2 5 9 12 6 7 10 11 11 12 10 10 10 11 14 13 13 14 15 17 16 17 17 14 11 9 6 11 11 12 10 23 32 32 27 27 24 26 25 24 25 24 21 17 15
4 1 6 5 5 5 7 9 8 4 2 8 9 8 9 9 10 14 10 13 12 12 13 17 16 15 16 15 10 6 6 8 8 11 6 22 28 34 26 25 24 26 27 25 20 18 20 18 15
7 4 5 3 3 3 8 14 12 7 4 3 5 8 10 10 8 6 9 12 13 13 13 17 16 14 14 14 12 8 7 3 7 8 10 9 23 27 25 23 24 22 23 23 21 21 20 20 19
2 3 3 4 8 8 8 7 7 6 6 7 6 5 7 6 8 8 9 11 13 13 14 15 14 12 12 12 9 6 3 4 4 6 9 10 15 20 22 20 20 22 23 25 22 19 19 18 17
3 6 5 5 6 3 4 5 6 8 8 8 7 4 4 6 6 6 8 10 13 13 13 13 11 12 11 9 8 4 3 2 4 7 3 9 12 12 14 19 18 17 20 20 22 18 15 15 14
2 5 6 4 4 4 2 1 4 6 6 7 7 3 5 7 7 6 8 13 12 12 12 12 11 11 11 9 7 4 1 2 4 8 5 7 11 12 17 13 18 19 17 18 18 20 19 16 16
4 3 6 2 1 3 1 2 4 4 3 4 7 5 4 5 8 7 10 11 10 12 12 12 11 9 10 8 6 4 2 4 3 5 3 7 14 13 14 19 16 18 17 25 21 17 19 19 16
3 2 3 5 4 4 3 2 9 3 5 3 3 2 3 5 5 6 7 8 12 12 9 10 10 10 8 7 6 3 2 2 3 7 3 6 8 9 15 11 14 19 13 16 23 19 17 17 15
3 1 3 4 2 5 4 5 5 5 6 2 4 4 6 6 4 7 6 9 10 10 10 8 8 8 8 6 6 4 3 2 4 5 5 3 7 11 8 6 10 16 19 16 16 21 19 16 16
2 0 2 4 2 2 4 6 3 1 2 4 5 3 4 4 5 7 7 8 8 8 7 8 7 8 7 8 7 6 5 4 2 5 7 6 5 15 10 8 6 14 17 21 19 19 19 19 16
1 1 2 2 2 4 5 5 5 3 5 6 5 5 1 4 6 6 7 7 8 6 6 5 6 7 7 8 7 7 6 4 3 3 6 9 7 7 13 10 5 10 17 21 20 21 22 20 17
2 1 2 1 1 4 2 6 4 2 2 3 3 1 3 6 4 6 6 6 6 6 5 5 6 7 6 7 7 7 7 6 4 2 4 6 9 10 10 11 9 8 9 15 21 20 17 16 14
2 2 4 3 3 1 2 7 2 5 6 3 3 4 6 8 6 6 5 5 5 5 6 5 3 6 7 7 8 8 8 6 4 2 1 5 8 11 12 11 10 8 8 10 8 4 7 11 9
Wind_Direction
77 78 107 219 265 219 228 87 356 33 20 1 53 60 95 64 32 359 343 350 360 352 4 313 273 263 226 235 232 224 214 205 197 193 195 200 199 189 179 158 142 131 131 136 135 145 132 137 145
132 87 58 251 253 224 60 43 54 34 32 339 59 65 40 76 27 333 348 355 2 2 344 355 293 272 226 229 230 225 217 210 203 203 198 205 207 198 191 168 147 138 149 129 128 122 130 132 145
122 89 272 230 278 41 45 46 34 52 68 37 89 58 45 26 332 345 341 342 354 355 355 341 326 277 256 212 230 225 218 217 221 214 212 214 208 200 186 173 157 146 166 134 117 124 115 125 137
89 251 250 263 65 55 31 46 356 348 112 48 84 79 69 38 5 347 344 335 332 342 343 342 337 262 267 247 227 225 217 217 219 221 220 217 212 200 192 183 165 159 172 149 127 120 116 126 138
11 271 251 240 92 96 77 20 331 350 48 40 351 125 117 63 343 342 357 335 334 332 331 328 346 287 262 282 266 189 216 202 208 213 214 213 213 204 194 190 180 174 183 168 140 123 119 130 138
263 255 271 22 99 98 93 12 325 6 28 37 23 333 108 90 333 350 4 348 330 334 323 314 321 309 271 262 247 202 190 181 209 202 209 211 209 210 202 195 195 197 211 183 145 135 127 126 138
281 283 22 18 90 153 60 358 28 352 1 40 343 317 115 339 337 347 348 350 345 339 332 323 301 294 307 250 245 217 187 199 207 203 216 223 213 215 213 215 209 205 203 198 160 140 128 124 132
299 269 189 45 17 81 60 329 55 30 59 13 3 28 352 333 342 340 338 331 328 336 336 335 323 306 285 283 214 221 189 203 230 227 220 229 229 221 219 217 213 208 200 198 161 141 137 129 130
298 270 70 47 1 60 71 347 86 324 279 49 63 3 332 327 338 327 330 330 331 333 337 338 344 324 300 269 245 225 213 220 231 237 234 234 230 229 227 219 212 211 207 185 166 155 138 151 137
5 13 42 27 34 17 70 340 1 312 303 184 175 99 317 322 335 333 334 331 330 333 332 336 337 341 324 293 257 246 230 231 222 240 237 233 231 227 235 222 211 208 200 176 170 167 153 154 141
6 56 100 57 24 1 7 247 328 322 293 62 331 307 302 326 330 327 330 331 331 329 332 327 329 334 330 322 282 258 244 227 231 233 242 227 230 205 236 217 212 211 208 188 177 179 168 164 147
112 54 34 38 18 321 354 329 304 117 313 271 267 280 322 325 328 326 330 330 333 332 329 324 319 315 320 308 298 281 252 245 242 242 232 257 206 213 223 221 212 211 199 191 193 181 175 169 161
80 98 80 46 295 299 319 274 272 279 235 270 279 313 308 319 319 323 324 329 332 331 328 325 322 313 313 307 304 294 282 267 260 252 243 239 264 207 221 221 210 205 207 210 200 185 176 183 193
105 104 98 257 303 264 301 308 55 211 223 252 261 286 292 302 308 325 313 326 332 331 329 331 323 316 311 301 304 294 290 284 269 254 250 233 228 242 216 225 213 209 210 199 199 192 183 196 197
129 158 172 213 341 286 313 240 229 198 223 261 265 267 274 297 301 301 306 323 328 331 333 333 330 325 312 296 295 293 288 284 287 258 260 237 226 217 228 220 212 203 214 203 210 197 195 203 197
218 224 294 97 314 123 307 103 166 190 239 268 276 270 261 282 286 292 300 318 325 327 329 334 334 330 318 311 296 297 280 291 287 280 271 235 223 225 228 214 211 208 206 218 210 205 206 208 204
224 344 22 144 97 324 262 297 160 201 224 267 281 277 269 277 282 274 283 308 323 327 326 327 335 336 332 321 302 292 288 290 300 291 288 225 214 213 214 214 212 207 208 216 204 206 210 208 203
15 19 5 317 87 354 291 261 282 264 206 248 281 283 278 277 280 267 295 306 321 332 326 319 331 331 331 329 318 293 288 280 305 296 270 207 212 206 209 206 206 202 203 201 207 207 205 208 216
345 28 283 333 80 332 277 297 290 104 280 265 264 282 289 286 273 295 293 307 314 318 318 319 330 330 330 336 324 289 277 273 304 306 294 195 209 202 196 199 201 200 201 201 209 209 203 204 210
309 307 14 299 59 317 293 296 283 176 221 262 304 306 310 305 297 278 290 296 308 321 316 322 332 330 334 345 337 328 322 336 299 303 276 125 159 174 178 194 197 193 197 201 203 206 198 205 211
97 346 33 291 312 248 276 271 189 181 207 212 242 272 284 297 276 269 278 288 301 312 323 330 339 337 341 349 340 331 309 26 329 277 243 222 138 174 180 182 192 198 198 196 205 208 208 209 206
323 14 317 307 7 310 28 292 217 167 203 194 196 205 289 289 286 283 278 277 298 317 328 336 347 347 347 355 346 331 262 346 13 288 235 136 190 203 188 193 185 197 201 203 203 208 211 211 213
63 346 312 328 321 353 234 295 246 149 235 162 147 216 258 281 286 285 278 282 308 324 334 338 343 347 345 356 358 341 309 272 352 294 254 143 174 198 218 223 208 202 205 203 212 211 207 212 215
332 267 233 241 318 12 1 61 269 172 130 136 156 178 247 271 293 290 284 308 313 322 331 338 342 340 343 1 5 359 327 333 255 272 229 161 202 205 213 233 225 228 222 219 212 212 212 214 220
238 307 326 358 13 227 85 8 253 138 150 169 136 221 267 281 299 284 287 284 289 313 331 343 348 354 354 1 360 6 359 3 290 267 232 195 159 184 201 213 218 222 219 220 217 214 206 215 224
27 353 145 225 285 275 102 239 256 87 103 177 221 243 272 296 285 304 289 282 296 320 330 351 352 3 7 3 5 22 13 331 241 249 232 199 173 196 195 235 222 211 212 216 216 217 220 226 228
294 326 13 96 48 36 247 276 283 77 213 182 208 217 279 293 298 296 290 296 300 318 330 336 1 6 8 13 13 33 24 328 258 219 220 228 195 191 189 216 227 212 207 211 208 209 211 218 222
333 192 68 356 29 315 301 290 250 281 254 188 216 218 27 321 325 311 308 291 306 324 337 341 356 17 17 21 21 22 28 13 349 270 214 219 211 197 184 188 247 203 211 225 220 222 221 219 227
148 191 226 52 87 170 296 277 318 16 140 196 144 14 313 313 316 303 303 293 306 324 347 348 3 16 51 32 27 35 37 32 31 323 265 234 209 195 191 178 190 139 156 199 216 233 226 233 232
326 286 194 137 244 297 144 273 309 0 24 350 302 301 310 326 317 317 319 303 316 333 345 7 6 55 46 41 42 42 39 39 48 7 250 214 212 200 183 186 182 164 138 142 139 151 190 186 200